This demonstration page uses our WeatherBlox Daily Observations layout. Learn more.

Left ArrowRight Arrow

Hourly Observations for December 18, 2016

Temp ( °F °C ) Dew Point ( °F °C ) Humidity (%) Winds ( mph kmh ) Pressure ( in mb ) Visibility ( mi km ) Precip ( " mm )
12:51 am 00:51 Clear 29 -1.7 25 -3.9 85 85 N N/A 30.12 1020 10 16 N/A
1:51 am 01:51 Clear 29 -1.7 26 -3.3 89 89 N N/A 30.13 1020 10 16 N/A
2:51 am 02:51 Clear 27 -2.8 24 -4.4 89 89 N N/A 30.14 1021 10 16 N/A
3:51 am 03:51 Clear 26 -3.3 23 -5 88 88 N N/A 30.14 1021 10 16 N/A
4:51 am 04:51 Clear 26 -3.3 23 -5 88 88 SSE 3 6 30.16 1021 10 16 N/A
5:51 am 05:51 Clear 25 -3.9 22 -5.6 88 88 ESE 6 9 30.19 1022 10 16 N/A
6:51 am 06:51 Clear 25 -3.9 21 -6.1 85 85 ESE 5 7 30.22 1023 10 16 N/A
7:51 am 07:51 Sunny 28 -2.2 24 -4.4 85 85 SSE 10 17 30.24 1024 10 16 N/A
8:51 am 08:51 Sunny 37 2.8 25 -3.9 62 62 ESE 12 19 30.24 1024 10 16 N/A
9:51 am 09:51 Sunny 43 6.1 25 -3.9 49 49 E 7 11 30.23 1024 10 16 N/A
10:51 am 10:51 Sunny 47 8.3 23 -5 39 39 E 10 17 30.23 1024 10 16 N/A
11:51 am 11:51 Sunny 49 9.4 22 -5.6 35 35 SE 10 17 30.19 1022 10 16 N/A
12:51 pm 12:51 Sunny 51 10.6 23 -5 33 33 VRB 6 9 30.16 1021 10 16 N/A
1:51 pm 13:51 Sunny 53 11.7 22 -5.6 30 30 VRB 3 6 30.13 1020 10 16 N/A
2:51 pm 14:51 Sunny 53 11.7 22 -5.6 30 30 S 7 11 30.12 1020 10 16 N/A
3:51 pm 15:51 Sunny 53 11.7 23 -5 31 31 S 9 15 30.12 1020 10 16 N/A
4:51 pm 16:51 Sunny 51 10.6 25 -3.9 36 36 S 6 9 30.14 1021 10 16 N/A
5:51 pm 17:51 Clear 45 7.2 28 -2.2 52 52 ENE 7 11 30.18 1022 10 16 N/A
6:51 pm 18:51 Clear 43 6.1 28 -2.2 56 56 E 8 13 30.21 1023 10 16 N/A
7:51 pm 19:51 Clear 42 5.6 27 -2.8 55 55 E 8 13 30.23 1024 10 16 N/A
8:51 pm 20:51 Clear 42 5.6 25 -3.9 51 51 E 8 13 30.23 1024 10 16 N/A
9:51 pm 21:51 Clear 41 5 26 -3.3 55 55 SSE 8 13 30.25 1024 10 16 0.01 0.25
10:51 pm 22:51 Clear 43 6.1 25 -3.9 49 49 ESE 8 13 30.25 1024 10 16 0.01 0.25
11:51 pm 23:51 Clear 41 5 26 -3.3 55 55 ESE 8 13 30.25 1024 10 16 N/A

Powered by AerisWeather